[[{"header":{"parameterUnit":"m.s-1","parameterCategory":1,"la1":30.2991,"la2":30.254,"lo1":-89.0895,"lo2":-89.0444,"dy":0.0017,"dx":0.0017,"nx":28,"ny":28,"refTime":"2023-09-05T21:00:00:Z","depth":0,"parameterNumber":2,"parameterNumberName":"U-component_of_WINDS"},"data":[0,0,0,0,0,0,0,0,0,0,0,0,0,0,0,0,0,0,0,0,0,0,0,0,0,0,0,0,0,0,0,0,0,0,0,0,0,0,0,0,0,0,0,0,0,0,0,0,0,0,0,0,0,0,0,0,0,0,-0.7243,-0.7242,0,-0.7205,-0.7205,-0.7204,-0.7182,-0.7181,-0.7181,-0.7181,-0.7142,-0.7141,-0.714,0,0,0,0,0,0,0,0,0,0,0,0,0,-0.7295,-0.7294,-0.7243,-0.7242,-0.7242,-0.7205,-0.7205,-0.7204,-0.7182,-0.7181,-0.7181,-0.7181,-0.7142,-0.7141,-0.714,0,0,0,0,0,0,0,0,0,0,0,0,0,-0.7267,-0.7294,-0.7243,-0.7226,-0.7224,-0.7205,-0.7205,-0.7204,-0.7182,-0.7181,-0.7181,-0.7181,-0.7143,-0.7141,-0.714,-0.7134,0,0,-0.7136,-0.7135,0,0,0,0,0,0,0,0,-0.7268,-0.7265,-0.7229,-0.7227,-0.7225,-0.7198,-0.7209,-0.7181,-0.7182,-0.7198,-0.7181,-0.7181,-0.7161,-0.7158,-0.7151,-0.7133,-0.7131,-0.7135,-0.7135,-0.7134,-0.7134,0,0,0,0,0,0,0,-0.727,-0.7266,-0.7228,-0.7229,-0.7226,-0.7221,-0.7216,-0.7203,-0.7181,-0.7196,-0.7195,-0.719,-0.716,-0.7152,-0.715,-0.713,-0.7136,-0.7134,-0.7133,-0.7133,-0.7106,-0.7106,0,0,0,0,0,0,-0.7275,-0.7268,-0.7229,-0.7227,-0.7247,-0.722,-0.7215,-0.7207,-0.7181,-0.7177,-0.7191,-0.719,-0.7155,-0.7152,-0.7149,-0.714,-0.7134,-0.7133,-0.7132,-0.7106,-0.7106,-0.7106,0,0,0,0,0,0,-0.7276,-0.7272,-0.7231,-0.7247,-0.7241,-0.7219,-0.721,-0.7206,-0.7199,-0.7176,-0.7172,-0.7188,-0.7155,-0.7151,-0.7138,-0.7139,-0.7132,-0.7131,-0.7106,-0.7106,-0.7106,-0.7124,0,0,0,0,0,0,-0.7278,-0.7272,-0.727,-0.7247,-0.724,-0.7221,-0.721,-0.7205,-0.7197,-0.7195,-0.7172,-0.7168,-0.7154,-0.714,-0.7137,-0.7137,-0.713,-0.7105,-0.7106,-0.7106,-0.7124,-0.7125,-0.7127,0,0,0,0,0,-0.728,-0.7276,-0.727,-0.7265,-0.7237,-0.7221,-0.7217,-0.7201,-0.7197,-0.7194,-0.718,-0.7169,-0.7139,-0.7139,-0.7135,-0.7135,-0.7105,-0.7106,-0.7106,-0.7123,-0.7125,-0.7127,0,0,0,0,0,0,-0.73,-0.7273,-0.7265,-0.7255,-0.724,-0.7217,-0.7214,-0.7204,-0.719,-0.7189,-0.7169,-0.7165,-0.7154,-0.7143,-0.7144,-0.7128,-0.7121,-0.7121,-0.7136,-0.7137,-0.7139,-0.7142,-0.7129,0,0,0,0,0,-0.7303,-0.7292,-0.7269,-0.7262,-0.7255,-0.7236,-0.7228,-0.7217,-0.7201,-0.7195,-0.718,-0.7165,-0.7152,-0.7144,-0.7131,-0.7122,-0.7117,-0.712,-0.7121,-0.7123,-0.7122,-0.7117,-0.7118,-0.7107,-0.7107,-0.7107,0,0,-0.7309,-0.7293,-0.7288,-0.7266,-0.7253,-0.7243,-0.7231,-0.722,-0.7212,-0.7193,-0.7181,-0.7169,-0.7151,-0.7141,-0.7135,-0.7131,-0.7124,-0.7123,-0.7124,-0.7123,-0.7117,-0.7118,-0.7119,-0.7107,-0.7107,-0.7107,0,0,-0.7315,-0.7302,-0.7295,-0.7283,-0.7264,-0.7251,-0.725,-0.7228,-0.722,-0.7207,-0.7193,-0.7183,-0.7162,-0.715,-0.7141,-0.7143,-0.7133,-0.7139,-0.7147,-0.7142,-0.7143,-0.7143,-0.7144,-0.7145,-0.7139,-0.7139,-0.7139,0,-0.7326,-0.7309,-0.7292,-0.7282,-0.7273,-0.7256,-0.7249,-0.7238,-0.7216,-0.721,-0.7206,-0.7179,-0.7166,-0.7152,-0.7153,-0.7146,-0.7144,-0.7142,-0.7144,-0.7145,-0.7145,-0.7145,-0.7146,-0.714,-0.714,-0.714,-0.714,0,-0.7323,-0.7312,-0.7308,-0.7287,-0.7278,-0.7269,-0.7251,-0.7244,-0.7234,-0.7221,-0.7209,-0.7192,-0.7176,-0.7172,-0.7162,-0.7157,-0.7155,-0.7148,-0.714,-0.7147,-0.7147,-0.7147,-0.7142,-0.7141,-0.7141,-0.7141,0,0,-0.734,-0.7311,-0.731,-0.73,-0.7279,-0.727,-0.7261,-0.7245,-0.7239,-0.7225,-0.7216,-0.7199,-0.7192,-0.7182,-0.7171,-0.7166,-0.7169,-0.7159,-0.7159,-0.7162,-0.7163,-0.7169,-0.7169,-0.7163,-0.7163,-0.7163,-0.7165,0,-0.7343,-0.7325,-0.731,-0.7299,-0.7288,-0.7272,-0.7264,-0.725,-0.7239,-0.7228,-0.7215,-0.7203,-0.7195,-0.7189,-0.7184,-0.717,-0.7169,-0.717,-0.7155,-0.7154,-0.7159,-0.7169,-0.7175,-0.7178,-0.7165,-0.7165,-0.7165,0,-0.7344,-0.7331,-0.7318,-0.7298,-0.7293,-0.7286,-0.727,-0.7261,-0.7245,-0.7236,-0.7226,-0.7214,-0.7203,-0.7197,-0.7183,-0.7183,-0.7176,-0.7169,-0.7168,-0.7166,-0.716,-0.7167,-0.7178,-0.7179,-0.7165,-0.7165,-0.7165,0,-0.7358,-0.7337,-0.7326,-0.7319,-0.7295,-0.7291,-0.7281,-0.7265,-0.7256,-0.7243,-0.7237,-0.7223,-0.7215,-0.7204,-0.7188,-0.7185,-0.7175,-0.7168,-0.7168,-0.7168,-0.7166,-0.7167,-0.7176,-0.7162,-0.7162,-0.7162,-0.7162,0,-0.7363,-0.7356,-0.7332,-0.7326,-0.7318,-0.73,-0.7293,-0.7281,-0.7267,-0.7258,-0.7244,-0.7236,-0.7216,-0.7205,-0.7193,-0.7183,-0.7179,-0.7173,-0.7169,-0.7174,-0.7175,-0.7169,-0.7168,-0.7162,-0.7162,-0.7162,-0.7162,0,-0.7377,-0.7361,-0.7349,-0.7328,-0.7322,-0.7317,-0.7299,-0.7292,-0.728,-0.7269,-0.7265,-0.7246,-0.7233,-0.7217,-0.7198,-0.719,-0.7181,-0.7177,-0.7187,-0.7185,-0.7186,-0.7186,-0.7192,-0.7192,-0.7178,-0.7178,-0.7179,0,-0.7381,-0.7375,-0.7353,-0.7347,-0.7337,-0.7326,-0.7318,-0.7301,-0.7292,-0.7274,-0.727,-0.7256,-0.7244,-0.7224,-0.7208,-0.7194,-0.7189,-0.7192,-0.7186,-0.7191,-0.7189,-0.7189,-0.7188,-0.7193,-0.7193,-0.7193,-0.7194,0,-0.739,-0.7383,-0.7371,-0.7357,-0.7347,-0.7335,-0.7322,-0.7317,-0.7298,-0.7289,-0.7276,-0.7267,-0.7248,-0.7235,-0.7219,-0.7208,-0.7198,-0.7195,-0.7195,-0.7199,-0.7205,-0.7202,-0.719,-0.7195,-0.7195,-0.7195,-0.7195,-0.7195,-0.7399,-0.7393,-0.7377,-0.7365,-0.7353,-0.7342,-0.7335,-0.7322,-0.731,-0.7294,-0.7285,-0.7272,-0.7257,-0.7234,-0.7224,-0.7214,-0.721,-0.7209,-0.7209,-0.7209,-0.721,-0.7207,-0.7211,-0.7211,-0.7211,-0.7211,-0.7211,0,-0.7407,-0.7396,-0.7385,-0.7368,-0.7358,-0.7349,-0.7335,-0.7327,-0.7316,-0.7303,-0.7291,-0.7276,-0.7263,-0.7247,-0.7232,-0.7227,-0.7222,-0.7224,-0.7224,-0.7222,-0.7214,-0.7216,-0.7228,-0.7228,-0.7228,-0.7228,-0.7228,-0.7228,-0.7411,-0.74,-0.7391,-0.7375,-0.7364,-0.7351,-0.7344,-0.7333,-0.7322,-0.7306,-0.7295,-0.7285,-0.727,-0.7255,-0.7242,-0.7238,-0.7233,-0.7236,-0.723,-0.7224,-0.7222,-0.7221,-0.7223,-0.7236,-0.7236,-0.7239,-0.7239,-0.7239]},{"header":{"parameterUnit":"m.s-1","parameterCategory":1,"la1":30.2991,"la2":30.254,"lo1":-89.0895,"lo2":-89.0444,"dy":0.0017,"dx":0.0017,"nx":28,"ny":28,"refTime":"2023-09-05T21:00:00:Z","depth":0,"parameterNumber":3,"parameterNumberName":"V-component_of_WINDS"},"data":[0,0,0,0,0,0,0,0,0,0,0,0,0,0,0,0,0,0,0,0,0,0,0,0,0,0,0,0,0,0,0,0,0,0,0,0,0,0,0,0,0,0,0,0,0,0,0,0,0,0,0,0,0,0,0,0,0,0,2.9184,2.9184,0,2.9213,2.9213,2.9213,2.9193,2.9192,2.9191,2.919,2.9216,2.9218,2.9219,0,0,0,0,0,0,0,0,0,0,0,0,0,2.9108,2.911,2.9184,2.9184,2.9185,2.9212,2.9213,2.9213,2.9193,2.9192,2.9191,2.919,2.9216,2.9218,2.922,0,0,0,0,0,0,0,0,0,0,0,0,0,2.9139,2.911,2.9184,2.9178,2.9178,2.9212,2.9213,2.9213,2.9193,2.9192,2.9191,2.9189,2.9215,2.9218,2.922,2.9261,0,0,2.9227,2.9228,0,0,0,0,0,0,0,0,2.9138,2.9142,2.9178,2.9178,2.9178,2.9198,2.9196,2.9229,2.9194,2.9187,2.919,2.9189,2.9211,2.9214,2.9222,2.9262,2.9263,2.9227,2.9228,2.9229,2.923,0,0,0,0,0,0,0,2.9136,2.9141,2.9195,2.9179,2.9179,2.9173,2.9176,2.9202,2.9206,2.9188,2.9186,2.919,2.9211,2.922,2.9222,2.9263,2.9227,2.9229,2.923,2.9231,2.9338,2.9339,0,0,0,0,0,0,2.9134,2.9139,2.9194,2.9196,2.9154,2.9175,2.9179,2.9193,2.9206,2.9207,2.9191,2.9189,2.9216,2.922,2.9223,2.9271,2.9229,2.9231,2.9233,2.9336,2.9338,2.9339,0,0,0,0,0,0,2.9133,2.914,2.9193,2.9167,2.9174,2.9178,2.9194,2.9194,2.9203,2.9209,2.9209,2.92,2.9216,2.922,2.9252,2.9271,2.9233,2.9235,2.9334,2.9337,2.9339,2.9367,0,0,0,0,0,0,2.9131,2.9139,2.9155,2.9168,2.9175,2.9222,2.9196,2.9196,2.9207,2.9205,2.9217,2.9217,2.9215,2.9248,2.9254,2.9274,2.9236,2.9333,2.9335,2.9338,2.9365,2.937,2.9375,0,0,0,0,0,2.9128,2.9162,2.9156,2.9163,2.9196,2.9223,2.9227,2.9224,2.9209,2.9225,2.9229,2.9217,2.9269,2.9252,2.9258,2.9279,2.9331,2.9335,2.9338,2.9362,2.9369,2.9375,0,0,0,0,0,0,2.915,2.9163,2.9157,2.9196,2.9209,2.922,2.9239,2.9232,2.9248,2.9245,2.924,2.9243,2.9276,2.9281,2.9261,2.9319,2.9297,2.9302,2.9314,2.9321,2.9326,2.9323,2.9238,0,0,0,0,0,2.916,2.9182,2.9192,2.9225,2.9232,2.9235,2.9247,2.9244,2.9256,2.9261,2.9267,2.9278,2.9297,2.9309,2.9327,2.9366,2.9367,2.9383,2.9389,2.9393,2.9396,2.9416,2.9423,2.935,2.935,2.935,0,0,2.9179,2.9189,2.9203,2.923,2.9239,2.9261,2.9239,2.9264,2.9279,2.9264,2.9294,2.9299,2.9312,2.9347,2.9363,2.9352,2.9417,2.9397,2.94,2.9401,2.942,2.9427,2.9433,2.9352,2.9352,2.9352,0,0,2.9226,2.9236,2.9265,2.9275,2.929,2.9292,2.9299,2.9311,2.9314,2.9345,2.9333,2.9352,2.9385,2.9394,2.9403,2.9453,2.9443,2.9459,2.9486,2.9505,2.9511,2.9516,2.9533,2.9539,2.9463,2.9463,2.9463,0,2.9248,2.9281,2.928,2.9305,2.9317,2.9306,2.9333,2.9343,2.9363,2.937,2.9359,2.9399,2.9407,2.9444,2.9456,2.9464,2.9471,2.9457,2.9511,2.9515,2.952,2.9536,2.9542,2.9465,2.9465,2.9465,2.9465,0,2.9307,2.933,2.9351,2.9372,2.9386,2.9412,2.9414,2.9428,2.9424,2.9427,2.9457,2.9467,2.9486,2.9494,2.949,2.953,2.9523,2.9511,2.9489,2.9529,2.9543,2.955,2.9468,2.9467,2.9466,2.9466,0,0,2.9366,2.9386,2.9394,2.9403,2.9419,2.9436,2.9462,2.9482,2.9493,2.9508,2.9528,2.9557,2.9546,2.9556,2.9553,2.957,2.9608,2.9556,2.9556,2.9564,2.9651,2.9658,2.9666,2.9602,2.9603,2.9604,2.9649,0,2.9412,2.9458,2.9458,2.9499,2.952,2.9511,2.9533,2.9545,2.9548,2.9566,2.9569,2.9589,2.9574,2.958,2.9596,2.96,2.9625,2.9597,2.9619,2.962,2.9615,2.9674,2.9682,2.9724,2.9655,2.9656,2.9657,0,2.9472,2.9489,2.9533,2.9546,2.9555,2.9575,2.9592,2.961,2.9623,2.9624,2.9636,2.9631,2.9655,2.9635,2.9668,2.9649,2.9658,2.9662,2.9663,2.9663,2.964,2.9674,2.9737,2.9743,2.9666,2.9666,2.9665,0,2.9509,2.9543,2.9573,2.9582,2.9598,2.9612,2.9619,2.9631,2.9643,2.9658,2.9665,2.9684,2.9693,2.9706,2.9705,2.9691,2.9739,2.9718,2.9739,2.9739,2.9748,2.9747,2.9812,2.9757,2.9757,2.9757,2.9757,0,2.9559,2.9586,2.959,2.9609,2.9638,2.9638,2.9667,2.9673,2.9683,2.9702,2.9695,2.9712,2.9711,2.9728,2.9728,2.9755,2.976,2.976,2.9759,2.976,2.9759,2.9764,2.9761,2.9759,2.9759,2.9758,2.9758,0,2.9604,2.9609,2.9641,2.9654,2.9658,2.9679,2.969,2.9707,2.9711,2.9734,2.974,2.9744,2.9765,2.9766,2.9789,2.9788,2.9821,2.9818,2.9817,2.9815,2.9836,2.9833,2.9904,2.9913,2.9854,2.9855,2.9855,0,2.9635,2.9656,2.9672,2.9684,2.9692,2.9713,2.9725,2.9725,2.9738,2.9755,2.977,2.9789,2.9805,2.9837,2.9842,2.986,2.9856,2.988,2.9858,2.9858,2.9854,2.9852,2.9853,2.9883,2.9884,2.9884,2.9885,0,2.9689,2.969,2.9709,2.9728,2.9743,2.9758,2.9772,2.9783,2.9785,2.9799,2.982,2.9833,2.9857,2.9876,2.9893,2.9899,2.9892,2.9892,2.9897,2.9897,2.9895,2.9894,2.9826,2.9889,2.9889,2.9889,2.9888,2.9888,2.9727,2.9744,2.9758,2.9779,2.979,2.9803,2.982,2.9826,2.9844,2.9864,2.9863,2.9886,2.9898,2.992,2.9928,2.9945,2.9937,2.9945,2.9947,2.9949,2.995,2.9894,2.9949,2.9948,2.9948,2.9948,2.9948,0,2.9779,2.9788,2.9807,2.9827,2.9843,2.9837,2.9852,2.9866,2.9886,2.9899,2.9915,2.9938,2.9957,2.9964,2.9982,2.9994,2.9991,2.9999,2.9997,2.9998,2.9957,2.995,3.0001,3.0001,3.0001,3.0001,3.0001,3.0001,2.9808,2.9837,2.984,2.9874,2.9882,2.9905,2.9914,2.9926,2.9936,2.9963,2.9979,2.9984,2.9994,3.0013,3.0029,3.0031,3.0037,3.0046,3.0045,3.0006,3.0001,2.9996,2.9989,3.0047,3.0047,3.0085,3.0085,3.0085]}]]